THORAD AGENA D DEB, 4968

Orbit data source: Space-Track

THORAD AGENA D DEB, 4968 is space debris in SSO originally from a launch on Wed, 08 Apr 1970 UTC launched from the Air Force Western Test Range (AFWTR). Debris objects in space refer to the collection of defunct objects orbiting the Earth. Examples of debris include non-operational satellites, rocket bodies, and fragments generated from explosions, collisions, or faulty payload assembly.

Loading next visibility...
Identifier
4968, 1970-025GN
Orbit
SSO
Country
Flag of USUS
Related business
Manufacturer
Unknown
Mission
Spacecraft
Bus & Motor
Unknown
Mass
Unknown
Launch date (UTC)
1970-04-08 (56 years ago)
Launch vehicle
Unknown
Launch site
Air Force Western Test Range (AFWTR)
Object type
Payload
Rocket body
Debris
Shape & HBR
Unknown shape, 0.1 m
Radar Cross Section
Small (<0.1 m²)

Expand to show TLE details & history
Last TLE update: 7 hours ago

TLE from 7 hours ago
0 THORAD AGENA D DEB
1 04968U 70025GN  25292.96989311  .00000358  00000-0  52175-3 0  9996
2 04968 100.1762 287.8723 0019127 263.0447 152.0212 13.62592451751698
Epoch: 2025-10-19T23:16Z
TLE epoch observation values (Epoch: 2025-10-19T23:16:38.764Z)
Latitude
53.99218°
Longitude
-104.19232°
Altitude
1,047.57 km
Speed
7.327 km/s
True Right ascension
18h 14m 35s
True Declination
53° 50' 06"
Sunlit
Object was in daylight at epoch
Visualization orbit readout
Latitude
Unknown
Longitude
Unknown
Altitude
Unknown
Speed
Unknown
Apparent Right ascension
Unknown
Apparent Declination
Unknown
Sunlit
N/A
Visualization observer readout
Local Sidereal Time
01:01:12
Azimuth
Unknown
Elevation
Unknown
Doppler factor
Unknown
Orbital elements
Apogee altitude
1,037.752 km
Perigee altitude
1,009.438 km
Semi-major axis
7,401.732 km
Eccentricity
0.00191
Inclination
100.1762°
RAAN
287.8723°
Arg. of periapsis
263.0447°
True anomaly
152.12381°
Mean anomaly
152.0212°
Eccentric anomaly
152.07253°
Mean motion
3.40834 °/min
Orbital period
105.62 mins
BSTAR
0.00052175

Documentation

Showing up to 5 results
|